TimeCDT,TemperatureF,Dew PointF,Humidity,Sea Level PressureIn,VisibilityMPH,Wind Direction,Wind SpeedMPH,Gust SpeedMPH,PrecipitationIn,Events,Conditions,WindDirDegrees,DateUTC
12:15 AM,75.2,69.8,83,29.88,10.0,South,6.9,-,N/A,,Clear,170,2013-08-20 05:15:00
12:35 AM,73.4,69.8,88,29.88,10.0,SSE,5.8,-,N/A,,Clear,150,2013-08-20 05:35:00
12:55 AM,73.4,69.8,88,29.87,10.0,SE,5.8,-,N/A,,Partly Cloudy,130,2013-08-20 05:55:00
1:15 AM,71.6,69.8,94,29.87,10.0,SSE,5.8,-,N/A,,Clear,160,2013-08-20 06:15:00
1:35 AM,71.6,68.0,88,29.87,7.0,SSE,4.6,-,N/A,,Clear,150,2013-08-20 06:35:00
1:55 AM,71.6,68.0,88,29.87,10.0,SE,3.5,-,N/A,,Clear,140,2013-08-20 06:55:00
2:15 AM,71.6,68.0,88,29.86,10.0,South,4.6,-,N/A,,Clear,180,2013-08-20 07:15:00
2:35 AM,71.6,68.0,88,29.86,10.0,South,5.8,-,N/A,,Clear,170,2013-08-20 07:35:00
2:55 AM,71.6,68.0,88,29.86,10.0,South,5.8,-,N/A,,Clear,170,2013-08-20 07:55:00
3:15 AM,71.6,68.0,88,29.86,10.0,South,4.6,-,N/A,,Clear,180,2013-08-20 08:15:00
3:35 AM,71.6,68.0,88,29.86,10.0,South,6.9,-,N/A,,Clear,190,2013-08-20 08:35:00
3:55 AM,71.6,68.0,88,29.86,10.0,South,6.9,-,N/A,,Clear,190,2013-08-20 08:55:00
4:15 AM,71.6,68.0,88,29.86,9.0,South,6.9,-,N/A,,Clear,190,2013-08-20 09:15:00
4:35 AM,71.6,66.2,83,29.86,8.0,South,5.8,-,N/A,,Clear,190,2013-08-20 09:35:00
4:55 AM,71.6,66.2,83,29.86,7.0,South,4.6,-,N/A,,Clear,180,2013-08-20 09:55:00
5:15 AM,69.8,66.2,88,29.85,7.0,SSW,3.5,-,N/A,,Clear,200,2013-08-20 10:15:00
5:35 AM,68.0,66.2,94,29.86,4.0,SE,3.5,-,N/A,,Clear,130,2013-08-20 10:35:00
5:55 AM,66.2,64.4,94,29.86,2.0,SE,3.5,-,N/A,,Clear,130,2013-08-20 10:55:00
6:15 AM,66.2,64.4,94,29.86,0.5,SE,3.5,-,N/A,,Unknown,130,2013-08-20 11:15:00
6:35 AM,64.4,64.4,100,29.87,0.8,SE,4.6,-,N/A,,Unknown,140,2013-08-20 11:35:00
6:55 AM,66.2,64.4,94,29.87,0.2,SSE,4.6,-,N/A,,Unknown,150,2013-08-20 11:55:00
7:15 AM,66.2,64.4,94,29.88,1.0,SSE,4.6,-,N/A,,Clear,150,2013-08-20 12:15:00
7:35 AM,66.2,64.4,94,29.88,1.2,SE,3.5,-,N/A,,Clear,130,2013-08-20 12:35:00
7:55 AM,68.0,66.2,94,29.88,1.8,SE,3.5,-,N/A,,Clear,140,2013-08-20 12:55:00
8:15 AM,69.8,66.2,88,29.88,2.5,SE,3.5,-,N/A,,Clear,130,2013-08-20 13:15:00
8:35 AM,69.8,68.0,94,29.89,3.0,SSE,3.5,-,N/A,,Clear,150,2013-08-20 13:35:00
8:55 AM,71.6,68.0,88,29.89,4.0,South,4.6,-,N/A,,Clear,180,2013-08-20 13:55:00
9:15 AM,73.4,68.0,83,29.90,9.0,Calm,Calm,-,N/A,,Clear,0,2013-08-20 14:15:00
9:35 AM,75.2,68.0,78,29.90,10.0,South,5.8,-,N/A,,Clear,190,2013-08-20 14:35:00
9:55 AM,75.2,68.0,78,29.89,10.0,South,4.6,-,N/A,,Clear,190,2013-08-20 14:55:00
10:15 AM,77.0,69.8,78,29.90,10.0,SE,3.5,-,N/A,,Clear,140,2013-08-20 15:15:00
10:35 AM,77.0,69.8,78,29.90,10.0,SE,4.6,-,N/A,,Clear,140,2013-08-20 15:35:00
10:55 AM,78.8,71.6,78,29.90,10.0,South,3.5,-,N/A,,Clear,170,2013-08-20 15:55:00
11:15 AM,80.6,71.6,74,29.89,10.0,SE,5.8,-,N/A,,Clear,140,2013-08-20 16:15:00
11:35 AM,80.6,71.6,74,29.89,8.0,ESE,5.8,-,N/A,,Clear,110,2013-08-20 16:35:00
11:55 AM,82.4,73.4,74,29.89,10.0,SE,8.1,-,N/A,,Clear,130,2013-08-20 16:55:00
12:15 PM,82.4,73.4,74,29.88,10.0,East,9.2,-,N/A,,Clear,100,2013-08-20 17:15:00
12:35 PM,84.2,73.4,70,29.88,10.0,SE,10.4,-,N/A,,Clear,130,2013-08-20 17:35:00
12:55 PM,84.2,73.4,70,29.88,10.0,SE,10.4,-,N/A,,Clear,140,2013-08-20 17:55:00
1:15 PM,86.0,75.2,70,29.88,10.0,SE,10.4,-,N/A,,Clear,140,2013-08-20 18:15:00
1:35 PM,86.0,75.2,70,29.87,10.0,SE,9.2,-,N/A,,Clear,140,2013-08-20 18:35:00
1:55 PM,87.8,75.2,66,29.87,10.0,SE,9.2,-,N/A,,Clear,140,2013-08-20 18:55:00
2:15 PM,87.8,75.2,66,29.86,9.0,SE,10.4,-,N/A,,Clear,140,2013-08-20 19:15:00
2:35 PM,87.8,75.2,66,29.86,10.0,SE,10.4,-,N/A,,Clear,140,2013-08-20 19:35:00
2:55 PM,87.8,75.2,66,29.86,10.0,SE,11.5,-,N/A,,Clear,130,2013-08-20 19:55:00
3:15 PM,89.6,75.2,62,29.86,10.0,SSE,10.4,-,N/A,,Clear,150,2013-08-20 20:15:00
3:35 PM,89.6,75.2,62,29.85,10.0,SE,8.1,-,N/A,,Clear,140,2013-08-20 20:35:00
3:55 PM,89.6,75.2,62,29.84,10.0,SE,9.2,-,N/A,,Clear,130,2013-08-20 20:55:00
4:15 PM,89.6,77.0,66,29.84,10.0,SE,8.1,-,N/A,,Clear,130,2013-08-20 21:15:00
4:35 PM,89.6,75.2,62,29.84,10.0,SSE,9.2,-,N/A,,Clear,160,2013-08-20 21:35:00
4:55 PM,87.8,75.2,66,29.84,10.0,South,12.7,-,N/A,,Clear,170,2013-08-20 21:55:00
5:15 PM,89.6,75.2,62,29.84,10.0,South,11.5,-,N/A,,Clear,180,2013-08-20 22:15:00
5:35 PM,87.8,75.2,66,29.83,10.0,South,10.4,-,N/A,,Clear,170,2013-08-20 22:35:00
5:55 PM,87.8,75.2,66,29.84,10.0,SSE,11.5,-,N/A,,Clear,160,2013-08-20 22:55:00
6:15 PM,87.8,75.2,66,29.84,10.0,SSE,10.4,-,N/A,,Clear,160,2013-08-20 23:15:00
6:35 PM,86.0,75.2,70,29.84,10.0,SSE,10.4,-,N/A,,Clear,150,2013-08-20 23:35:00
6:55 PM,86.0,75.2,70,29.84,10.0,SSE,10.4,-,N/A,,Clear,160,2013-08-20 23:55:00
7:15 PM,84.2,75.2,74,29.84,10.0,SSE,10.4,-,N/A,,Clear,160,2013-08-21 00:15:00
7:35 PM,82.4,75.2,79,29.83,10.0,SSE,11.5,-,N/A,,Clear,160,2013-08-21 00:35:00
7:55 PM,82.4,73.4,74,29.84,10.0,SSE,10.4,-,N/A,,Clear,160,2013-08-21 00:55:00
8:15 PM,80.6,73.4,79,29.84,10.0,SSE,10.4,-,N/A,,Clear,160,2013-08-21 01:15:00
8:35 PM,80.6,73.4,79,29.84,10.0,SSE,9.2,-,N/A,,Clear,160,2013-08-21 01:35:00
8:55 PM,80.6,73.4,79,29.84,10.0,SSE,9.2,-,N/A,,Clear,160,2013-08-21 01:55:00
9:15 PM,80.6,73.4,79,29.85,10.0,South,9.2,-,N/A,,Clear,170,2013-08-21 02:15:00
9:35 PM,78.8,71.6,78,29.85,10.0,SSE,5.8,-,N/A,,Clear,160,2013-08-21 02:35:00
9:55 PM,78.8,71.6,78,29.85,10.0,SSE,6.9,-,N/A,,Clear,150,2013-08-21 02:55:00
10:15 PM,77.0,71.6,83,29.85,5.0,SE,6.9,-,N/A,,Clear,140,2013-08-21 03:15:00
10:35 PM,77.0,71.6,83,29.85,9.0,SSE,5.8,-,N/A,,Clear,150,2013-08-21 03:35:00
10:55 PM,75.2,71.6,89,29.85,5.0,SSE,5.8,-,N/A,,Clear,150,2013-08-21 03:55:00
11:35 PM,75.2,71.6,89,29.86,6.0,SE,4.6,-,N/A,,Clear,130,2013-08-21 04:35:00
11:55 PM,75.2,71.6,89,29.86,9.0,SE,5.8,-,N/A,,Clear,140,2013-08-21 04:55:00